Location: Newark
(40.4667°N, 5.6000°W)
Time: 13:33:32
(UTC+00:00)

Hubble Space Telescope - Visible Passes

Search period start: 18 March 2019 00:00
Search period end: 28 March 2019 00:00
Orbit: 537 x 540 km, 28.5° (Epoch: 17 March)

Date Brightness Start Highest point End Pass type
(mag) Time Alt. Az. Time Alt. Az. Time Alt. Az.
25 Mar 3.0 20:06:30 10° S 20:07:45 12° S 20:07:45 12° S visible
26 Mar 2.9 19:55:29 10° SSW 19:57:29 13° S 19:58:03 13° SSE visible
27 Mar 2.8 19:44:38 10° SSW 19:46:51 14° S 19:48:18 12° SSE visible
